Location: Igon
(43.1667°N, 0.2333°W)
Time: 22:15:33
(UTC+00:00)

H-2A R/B - Pass Details

Date: 29 November 2020
Orbit: 529 x 652 km, 98.3° (Epoch: 18 January)

Event Time Altitude Azimuth Distance (km) Brightness Sun altitude
Rises 06:34:12 0° 6° (N) 2,701 5.7 -6.9°
Reaches altitude 10° 06:36:24 10° 359° (N) 1,796 4.7 -6.5°
Maximum altitude 06:40:02 41° 289° (WNW) 778 2.6 -5.9°
Drops below altitude 10° 06:43:37 10° 218° (SW) 1,772 4.8 -5.3°
Sets 06:45:47 0° 211° (SSW) 2,661 5.8 -4.9°
